Location: Bh?mavarapp?du
(16.7041°N, 80.6518°E)
Time: 06:11:27
(UTC+00:00)

ARGOS - Pass Details

Date: 21 April 2021
Orbit: 819 x 835 km, 98.4° (Epoch: 05 May)

Event Time Altitude Azimuth Distance (km) Brightness Sun altitude
Rises 14:06:07 0° 176° (S) 3,362 6.1 -17.4°
Reaches altitude 10° 14:08:30 10° 181° (S) 2,427 5.4 -17.9°
Maximum altitude 14:13:47 57° 259° (WSW) 968 3.8 -19.1°
Drops below altitude 10° 14:19:02 10° 337° (NNW) 2,420 6.1 -20.3°
Sets 14:21:26 0° 341° (NNW) 3,352 6.9 -20.8°
